Voltar ao catálogo

STARLINK-34908

AtivoComunicaçõesVLEO
NORAD 65329·PAYLOAD·🇺🇸 United States

Lançado Aug 27, 2025 de Cape Canaveral Space Force Station

Loading…

Próximas Passagens (próximas 24 horas)

TLE

AtualizadoSource: CelesTrak SupGP

Época: Sep 14, 2026, 15:21 UTC

1 65329C 25189G   26257.64006944 -.00073397  00000+0 -21688-2 0  2579
2 65329  53.1600  46.8609 0001193  88.3925  43.7182 15.34423357    17

Acompanhe STARLINK-34908 em tempo real com AllMySat

Download on the App Store